Weather History for Manning, SC

Change the Weather History Date:

Sunday, November 18, 2012

  Actual Average (KCKI) Record (KCKI)
Temperature  
Mean Temperature 52 °F -  
Max Temperature 55 °F 67 °F 82 °F (2013)
Min Temperature 50 °F 37 °F 28 °F (2014)
Degree Days  
Heating Degree Days 12    
Growing Degree Days 2 (Base 50)    
Moisture  
Dew Point 46 °F    
Average Humidity 79    
Maximum Humidity 94    
Minimum Humidity 54    
Precipitation  
Precipitation 0.18 in - - ()
Sea Level Pressure  
Sea Level Pressure 30.29 in    
Wind  
Wind Speed 11 mph (North)    
Max Wind Speed 16 mph    
Max Gust Speed 25 mph    
Visibility 10 miles    
Events      
Averages and records for this station are not official NWS values.
T = Trace of Precipitation, MM = Missing Value Source: NWS Daily Summary

Daily Weather History Graph

Daily Weather History Graph

Search for Another Location

Airport:

Trip Planner

Search our weather history database for the weather conditions in past years. The results will help you decide how hot, cold, wet, or windy it might be!

Date:

Astronomy

Nov. 18, 2012 Rise Set
Actual Time 6:55 AM EST 5:16 PM EST
Civil Twilight 6:29 AM EST 5:42 PM EST
Nautical Twilight 5:58 AM EST 6:12 PM EST
Astronomical Twilight 5:29 AM EST 6:42 PM EST
Moon 11:24 AM EST (11/18) 10:29 PM EST (11/18)
Length of Visible Light 11h 13m
Length of Day
10h 20m
Waxing Crescent, 30% of the Moon is Illuminated
Nov 18
Waxing Crescent
Nov 20
First Quarter
Nov 28
Full
Dec 6
Last Quarter
Dec 13
New

Hourly Weather History & Observations

Time (EST) Temp. Dew Point Humidity Pressure Visibility Wind Dir Wind Speed Gust Speed Precip Events Conditions
12:15 AM 53.6 °F 39.2 °F 58% 30.34 in 10.0 mi NNE 10.4 mph 20.7 mph N/A   Overcast
12:35 AM 53.6 °F 39.2 °F 58% 30.34 in 10.0 mi NNE 8.1 mph 16.1 mph N/A   Overcast
12:55 AM 53.6 °F 39.2 °F 58% 30.34 in 10.0 mi NNE 8.1 mph 16.1 mph N/A   Overcast
1:15 AM 53.6 °F 37.4 °F 54% 30.34 in 10.0 mi NNE 10.4 mph - N/A   Overcast
1:35 AM 53.6 °F 37.4 °F 54% 30.33 in 10.0 mi NNE 8.1 mph 17.3 mph N/A   Overcast
2:15 AM 53.6 °F 37.4 °F 54% 30.31 in 10.0 mi NNE 11.5 mph 18.4 mph N/A   Overcast
2:35 AM 53.6 °F 37.4 °F 54% 30.31 in 10.0 mi North 12.7 mph 17.3 mph N/A   Overcast
3:15 AM 51.8 °F 39.2 °F 62% 30.31 in 10.0 mi NNE 11.5 mph 18.4 mph N/A   Overcast
3:35 AM 51.8 °F 39.2 °F 62% 30.31 in 10.0 mi North 9.2 mph - N/A   Overcast
3:55 AM 51.8 °F 39.2 °F 62% 30.31 in 10.0 mi NNE 9.2 mph - N/A   Overcast
4:15 AM 51.8 °F 39.2 °F 62% 30.31 in 10.0 mi North 6.9 mph - N/A   Overcast
4:35 AM 51.8 °F 39.2 °F 62% 30.32 in 10.0 mi North 10.4 mph 16.1 mph N/A   Mostly Cloudy
4:55 AM 51.8 °F 37.4 °F 58% 30.32 in 10.0 mi North 9.2 mph 16.1 mph N/A   Overcast
5:15 AM 51.8 °F 37.4 °F 58% 30.32 in 10.0 mi North 10.4 mph 19.6 mph N/A   Overcast
5:35 AM 51.8 °F 37.4 °F 58% 30.32 in 10.0 mi North 12.7 mph 20.7 mph N/A   Mostly Cloudy
5:55 AM 51.8 °F 37.4 °F 58% 30.31 in 10.0 mi North 12.7 mph 17.3 mph N/A   Scattered Clouds
6:15 AM 51.8 °F 39.2 °F 62% 30.32 in 10.0 mi North 12.7 mph - N/A   Scattered Clouds
6:35 AM 51.8 °F 39.2 °F 62% 30.32 in 10.0 mi North 15.0 mph 18.4 mph N/A   Scattered Clouds
6:55 AM 51.8 °F 41.0 °F 67% 30.32 in 10.0 mi NNE 12.7 mph 17.3 mph N/A   Scattered Clouds
7:15 AM 51.8 °F 41.0 °F 67% 30.33 in 10.0 mi NNE 11.5 mph 19.6 mph N/A   Mostly Cloudy
7:35 AM 50.0 °F 41.0 °F 71% 30.33 in 10.0 mi North 10.4 mph 19.6 mph N/A   Overcast
7:55 AM 50.0 °F 42.8 °F 76% 30.34 in 10.0 mi North 11.5 mph 16.1 mph N/A   Overcast
8:15 AM 50.0 °F 42.8 °F 76% 30.34 in 10.0 mi North 13.8 mph 18.4 mph N/A   Overcast
8:35 AM 51.8 °F 42.8 °F 71% 30.34 in 10.0 mi North 10.4 mph 17.3 mph N/A   Overcast
8:55 AM 51.8 °F 42.8 °F 71% 30.34 in 10.0 mi North 10.4 mph 16.1 mph N/A   Overcast
9:15 AM 51.8 °F 42.8 °F 71% 30.34 in 10.0 mi North 11.5 mph - N/A   Overcast
9:35 AM 51.8 °F 44.6 °F 76% 30.33 in 10.0 mi North 12.7 mph 17.3 mph N/A   Overcast
10:15 AM 51.8 °F 44.6 °F 76% 30.33 in 10.0 mi North 8.1 mph - N/A   Overcast
10:35 AM 50.0 °F 46.4 °F 87% 30.33 in 10.0 mi North 9.2 mph 17.3 mph 0.01 in   Overcast
10:55 AM 50.0 °F 46.4 °F 87% 30.32 in 7.0 mi North 11.5 mph 16.1 mph 0.04 in   Overcast
11:15 AM 50.0 °F 46.4 °F 87% 30.32 in 10.0 mi North 9.2 mph 16.1 mph 0.01 in   Overcast
11:35 AM 51.8 °F 46.4 °F 82% 30.31 in 10.0 mi North 11.5 mph - 0.01 in   Overcast
11:55 AM 51.8 °F 48.2 °F 88% 30.29 in 10.0 mi North 11.5 mph 16.1 mph 0.02 in   Overcast
12:15 PM 51.8 °F 50.0 °F 94% 30.28 in 7.0 mi North 12.7 mph 18.4 mph 0.01 in   Overcast
12:35 PM 51.8 °F 50.0 °F 94% 30.27 in 7.0 mi North 13.8 mph 20.7 mph 0.03 in   Overcast
12:55 PM 51.8 °F 50.0 °F 94% 30.26 in 7.0 mi North 16.1 mph 25.3 mph 0.05 in   Overcast
1:15 PM 51.8 °F 50.0 °F 94% 30.26 in 10.0 mi North 12.7 mph 23.0 mph N/A   Overcast
1:35 PM 51.8 °F 50.0 °F 94% 30.26 in 10.0 mi North 15.0 mph 18.4 mph N/A   Overcast
1:55 PM 51.8 °F 50.0 °F 94% 30.26 in 10.0 mi North 11.5 mph 19.6 mph N/A   Overcast
2:15 PM 51.8 °F 50.0 °F 94% 30.25 in 10.0 mi North 15.0 mph 19.6 mph N/A   Overcast
2:35 PM 53.6 °F 50.0 °F 88% 30.24 in 10.0 mi North 13.8 mph 19.6 mph 0.01 in   Overcast
2:55 PM 53.6 °F 50.0 °F 88% 30.23 in 10.0 mi North 12.7 mph 20.7 mph 0.01 in   Overcast
3:15 PM 53.6 °F 50.0 °F 88% 30.24 in 10.0 mi North 13.8 mph 17.3 mph N/A   Overcast
4:15 PM 53.6 °F 50.0 °F 88% 30.23 in 5.0 mi North 11.5 mph 21.9 mph 0.03 in   Overcast
4:55 PM 53.6 °F 50.0 °F 88% 30.23 in 10.0 mi North 11.5 mph 24.2 mph 0.04 in   Overcast
5:35 PM 53.6 °F 51.8 °F 94% 30.24 in 10.0 mi North 11.5 mph 20.7 mph N/A   Overcast
6:15 PM 53.6 °F 51.8 °F 94% 30.24 in 10.0 mi North 9.2 mph 19.6 mph N/A   Overcast
6:35 PM 53.6 °F 51.8 °F 94% 30.25 in 7.0 mi North 10.4 mph - 0.01 in   Overcast
6:55 PM 53.6 °F 51.8 °F 94% 30.25 in 10.0 mi North 11.5 mph 19.6 mph 0.02 in   Overcast
7:15 PM 53.6 °F 51.8 °F 94% 30.25 in 10.0 mi North 11.5 mph 23.0 mph N/A   Overcast
7:35 PM 53.6 °F 51.8 °F 94% 30.25 in 10.0 mi North 11.5 mph 18.4 mph N/A   Overcast
7:55 PM 53.6 °F 51.8 °F 94% 30.25 in 10.0 mi North 12.7 mph 17.3 mph N/A   Overcast
8:15 PM 53.6 °F 51.8 °F 94% 30.25 in 10.0 mi North 11.5 mph 24.2 mph N/A   Overcast
8:35 PM 53.6 °F 51.8 °F 94% 30.25 in 10.0 mi North 10.4 mph 19.6 mph N/A   Overcast
8:55 PM 53.6 °F 51.8 °F 94% 30.25 in 10.0 mi North 12.7 mph 18.4 mph N/A   Overcast
9:15 PM 53.6 °F 51.8 °F 94% 30.25 in 10.0 mi North 12.7 mph 18.4 mph N/A   Overcast
9:35 PM 53.6 °F 51.8 °F 94% 30.25 in 10.0 mi North 10.4 mph 20.7 mph N/A   Overcast
9:55 PM 53.6 °F 51.8 °F 94% 30.25 in 10.0 mi North 9.2 mph 16.1 mph N/A   Overcast
10:15 PM 53.6 °F 51.8 °F 94% 30.25 in 10.0 mi North 10.4 mph 17.3 mph N/A   Overcast
10:35 PM 53.6 °F 51.8 °F 94% 30.25 in 10.0 mi North 10.4 mph 17.3 mph N/A   Overcast
10:55 PM 55.4 °F 50.0 °F 82% 30.25 in 10.0 mi North 11.5 mph 18.4 mph N/A   Overcast
11:15 PM 55.4 °F 50.0 °F 82% 30.25 in 10.0 mi North 12.7 mph 17.3 mph N/A   Overcast
11:35 PM 55.4 °F 50.0 °F 82% 30.25 in 10.0 mi North 10.4 mph 19.6 mph N/A   Overcast
11:55 PM 55.4 °F 50.0 °F 82% 30.24 in 10.0 mi North 13.8 mph 19.6 mph N/A   Overcast